CAPE
0 0 0 0 0 92 166 588 1099 1010 998 1049 815 933 416 697 647 238 401 475 826 519 296 91 0 1 97 252 0 212 60 260 571
0 0 0 0 0 0 0 8 683 1115 1034 1007 819 699 269 256 517 216 186 311 577 674 534 380 83 11 12 138 66 259 0 164 344
0 0 0 0 0 0 0 0 2 402 789 892 773 687 373 7 139 336 256 379 458 479 654 664 369 38 39 63 86 105 488 161 456
0 0 0 0 0 0 0 0 0 14 259 427 869 764 535 64 11 242 144 151 319 483 295 528 687 407 37 152 86 203 192 594 318
203 125 13 31 75 49 0 0 0 0 0 43 253 718 497 0 5 33 118 99 392 474 263 240 458 758 542 129 149 229 244 526 432
0 165 278 411 338 377 121 3 0 0 0 0 0 7 30 28 0 0 2 158 431 668 517 298 321 477 758 722 222 168 387 427 516
0 0 0 9 2 0 0 0 0 0 0 0 0 0 0 0 0 0 0 4 516 763 683 469 270 324 689 646 648 329 407 675 659
0 0 0 0 0 0 0 0 0 0 0 0 0 0 0 0 0 0 0 0 185 802 653 463 235 235 596 802 800 639 369 550 950
0 0 0 0 0 0 0 0 0 0 0 0 0 0 0 0 0 0 0 0 30 710 817 675 518 334 402 436 582 761 793 618 670
0 0 0 0 0 0 0 0 0 0 0 0 0 0 0 0 0 0 0 0 0 0 449 627 719 632 375 185 161 230 550 659 720
0 0 0 0 0 0 0 0 0 0 0 0 0 0 0 0 0 0 0 0 0 0 0 545 642 467 606 359 150 111 108 233 610
0 0 0 0 0 0 0 0 0 0 0 0 0 0 0 0 0 0 0 0 0 0 0 1 533 372 522 589 306 149 116 106 689
0 0 0 0 0 0 0 0 0 0 0 0 0 0 0 0 0 0 0 0 0 0 0 0 0 353 447 556 487 225 79 70 124
0 0 0 0 0 0 0 0 0 0 0 0 0 0 0 0 0 0 0 0 0 0 0 0 0 372 496 428 502 329 129 50 20
0 0 0 0 0 0 0 0 0 0 0 0 0 0 0 0 0 0 0 0 0 0 0 0 0 0 262 459 170 351 173 96 27
0 0 0 0 0 0 0 0 0 0 0 0 0 0 0 0 0 0 0 0 0 0 0 0 0 0 0 167 381 283 226 98 102
0 0 0 0 0 0 0 0 0 0 0 0 0 0 0 0 0 0 0 0 0 0 0 0 0 0 0 0 21 296 173 101 138
0 0 0 0 0 0 0 0 0 0 0 0 0 0 0 0 0 0 0 0 0 0 0 0 0 0 0 0 0 0 181 87 135
0 0 0 0 0 0 0 0 0 0 0 0 0 0 0 0 0 0 0 0 0 0 0 0 0 0 0 0 0 0 0 116 127
0 0 0 0 0 0 0 0 0 0 0 0 0 0 0 0 0 0 0 0 0 0 0 0 0 0 0 0 0 0 0 0 39
CIN
-0 -0 -0 -0 -0 -112 -85 -11 -0 -2 -3 -3 -3 -5 -32 -17 -22 -61 -34 -20 -3 -16 -45 -101 -0 -2 -67 -30 -0 -30 -73 -22 -0
-0 -0 -0 -0 -0 -0 -0 -136 -5 -0 -3 -5 -3 -8 -62 -61 -24 -67 -68 -34 -10 -7 -10 -29 -103 -171 -156 -50 -77 -26 -0 -28 -6
-0 -0 -0 -0 -0 -0 -0 -0 -11 -29 -9 -8 -1 -4 -46 -227 -144 -50 -66 -36 -8 -10 -1 -0 -28 -133 -128 -100 -68 -44 -0 -27 -5
-0 -0 -0 -0 -0 -0 -0 -0 -0 -107 -35 -22 -3 -1 -9 -134 -45 -71 -91 -79 -28 -7 -37 -3 -0 -16 -121 -71 -93 -31 -16 -0 -7
-29 -39 -111 -113 -87 -134 -0 -0 -0 -0 -0 -186 -43 -2 -9 -0 -243 -195 -100 -93 -9 -6 -39 -43 -8 -0 -0 -66 -60 -36 -23 -0 -2
-29 -29 -12 -13 -14 -6 -72 -56 -0 -0 -0 -0 -0 -84 -147 -241 -0 -0 -130 -67 -12 -2 -4 -24 -21 -7 -0 -0 -31 -45 -16 -10 -1
-0 -0 -19 -63 -95 -0 -0 -0 -0 -0 -0 -0 -0 -0 -0 -0 -0 -0 -0 -7 -9 -2 -3 -7 -22 -19 -2 -0 -1 -21 -9 -0 -0
-0 -0 -0 -0 -0 -0 -0 -0 -0 -0 -0 -0 -0 -0 -0 -0 -0 -0 -0 -0 -43 -5 -3 -4 -13 -23 -3 -0 -0 -2 -17 -3 -0
-0 -0 -0 -0 -0 -0 -0 -0 -0 -0 -0 -0 -0 -0 -0 -0 -0 -0 -0 -0 -132 -6 -2 -2 -5 -7 -3 -3 -0 -0 -0 -0 -0
-0 -0 -0 -0 -0 -0 -0 -0 -0 -0 -0 -0 -0 -0 -0 -0 -0 -0 -0 -0 -0 -0 -8 -0 -0 -1 -6 -10 -22 -20 -0 -0 -0
-0 -0 -0 -0 -0 -0 -0 -0 -0 -0 -0 -0 -0 -0 -0 -0 -0 -0 -0 -0 -0 -0 -0 -2 -0 -0 -0 -4 -10 -23 -36 -24 -2
-0 -0 -0 -0 -0 -0 -0 -0 -0 -0 -0 -0 -0 -0 -0 -0 -0 -0 -0 -0 -0 -0 -0 -0 -1 -0 -0 -0 -0 -5 -20 -47 -0
-0 -0 -0 -0 -0 -0 -0 -0 -0 -0 -0 -0 -0 -0 -0 -0 -0 -0 -0 -0 -0 -0 -0 -0 -0 -3 -0 -0 -0 -0 -14 -36 -38
-0 -0 -0 -0 -0 -0 -0 -0 -0 -0 -0 -0 -0 -0 -0 -0 -0 -0 -0 -0 -0 -0 -0 -0 -0 -8 -0 -0 -0 -0 -2 -25 -54
-0 -0 -0 -0 -0 -0 -0 -0 -0 -0 -0 -0 -0 -0 -0 -0 -0 -0 -0 -0 -0 -0 -0 -0 -0 -0 -7 -0 -0 -0 -0 -8 -43
-0 -0 -0 -0 -0 -0 -0 -0 -0 -0 -0 -0 -0 -0 -0 -0 -0 -0 -0 -0 -0 -0 -0 -0 -0 -0 -0 -13 -0 -1 -0 -5 -10
-0 -0 -0 -0 -0 -0 -0 -0 -0 -0 -0 -0 -0 -0 -0 -0 -0 -0 -0 -0 -0 -0 -0 -0 -0 -0 -0 -0 -9 -2 -1 -1 -0
-0 -0 -0 -0 -0 -0 -0 -0 -0 -0 -0 -0 -0 -0 -0 -0 -0 -0 -0 -0 -0 -0 -0 -0 -0 -0 -0 -0 -0 -0 -10 -5 -0
-0 -0 -0 -0 -0 -0 -0 -0 -0 -0 -0 -0 -0 -0 -0 -0 -0 -0 -0 -0 -0 -0 -0 -0 -0 -0 -0 -0 -0 -0 -0 -15 -4
-0 -0 -0 -0 -0 -0 -0 -0 -0 -0 -0 -0 -0 -0 -0 -0 -0 -0 -0 -0 -0 -0 -0 -0 -0 -0 -0 -0 -0 -0 -0 -0 -13
Wind_Speed
20 20 21 21 20 20 20 20 20 19 19 19 18 19 20 19 17 18 20 20 19 21 20 20 20 20 18 18 19 17 16 16 18
20 20 20 21 21 21 21 21 21 21 21 20 18 18 20 19 16 17 19 19 19 20 20 19 19 19 18 18 17 17 17 16 16
20 20 20 21 22 22 22 22 22 22 22 22 21 19 19 19 17 15 16 16 18 19 19 18 18 17 17 17 17 16 16 15 15
19 20 20 21 22 23 23 23 23 23 23 23 23 21 21 20 20 15 15 15 16 17 18 17 16 16 16 15 15 15 15 14 13
20 21 21 22 22 23 23 23 23 23 24 24 24 24 22 21 21 19 16 16 15 15 15 15 15 15 14 14 14 14 13 13 12
21 22 23 24 25 24 24 24 24 23 23 23 24 24 22 21 21 21 20 20 13 13 13 13 13 14 13 12 12 13 13 10 10
22 24 24 24 26 25 25 26 26 25 24 24 24 23 22 22 22 22 23 22 15 12 14 15 14 13 13 14 13 10 11 11 9
24 24 25 26 26 26 26 26 27 27 26 25 24 24 22 22 21 22 23 23 20 16 14 14 15 16 16 15 15 15 8 9 8
25 25 26 27 27 28 28 28 28 28 28 27 27 26 26 25 24 24 24 22 21 19 17 15 16 17 17 17 16 16 14 8 8
26 27 28 28 29 29 30 30 30 30 29 28 28 29 29 28 27 27 27 25 23 21 20 19 16 16 17 18 18 19 19 20 8
28 29 30 30 30 31 32 32 32 32 32 32 31 30 29 29 29 29 29 29 27 25 23 20 21 20 18 18 20 21 22 23 18
29 30 31 31 32 33 34 34 34 34 34 33 32 32 31 31 32 31 31 31 31 30 28 26 23 22 21 20 21 22 23 24 25
30 31 32 33 34 35 35 36 36 37 37 36 36 34 33 33 34 33 33 33 33 32 31 30 29 26 23 23 23 23 24 26 26
32 33 34 34 35 36 36 36 36 38 39 38 37 37 36 35 35 36 35 34 33 33 33 33 32 31 28 26 26 25 26 26 27
34 35 36 36 37 38 39 40 38 38 40 41 41 39 37 36 36 34 31 30 31 33 33 34 35 34 33 30 29 27 27 27 27
35 37 37 38 39 40 40 40 42 41 39 43 45 42 39 35 30 33 29 30 31 33 33 32 34 35 35 35 33 31 29 29 28
36 38 39 39 41 41 42 41 42 40 39 42 44 46 42 35 29 28 33 32 33 34 34 36 35 34 35 36 36 36 34 32 31
37 38 38 39 40 43 42 41 41 44 40 38 39 45 45 45 40 35 37 38 38 36 37 37 35 34 34 36 37 39 37 36 34
39 39 40 40 41 42 41 40 40 41 46 42 37 38 42 49 54 40 38 40 41 39 38 36 34 35 36 35 36 38 41 39 37
41 42 42 43 42 41 42 43 43 42 44 43 44 43 43 42 47 57 50 43 41 41 40 39 37 37 37 38 38 38 39 42 40
Wind_Direction
359 357 356 355 351 345 342 340 342 347 345 345 360 357 351 13 33 23 18 24 17 12 12 12 11 3 356 358 13 8 17 39 50
358 355 351 349 348 341 335 330 326 327 331 330 355 359 355 1 18 13 8 20 18 9 7 9 12 15 12 2 5 356 30 46 55
357 355 354 349 345 341 338 333 326 322 321 321 325 349 352 355 2 11 9 15 12 8 6 0 359 4 12 9 3 1 0 32 42
355 354 351 350 345 338 334 333 330 324 319 317 320 324 334 341 344 3 2 3 5 4 5 4 5 3 1 6 3 4 6 5 32
344 343 341 344 344 342 340 340 337 333 327 322 320 321 330 332 334 343 350 350 358 360 5 8 1 358 1 359 358 354 3 5 12
344 338 337 333 329 333 336 339 341 340 341 338 333 327 331 332 333 331 331 330 346 350 352 356 359 353 351 354 354 351 348 3 2
340 337 335 333 332 330 330 330 332 335 338 338 337 338 333 330 329 328 323 322 329 334 335 337 341 345 341 331 334 347 345 342 352
340 339 335 333 329 330 330 330 331 331 333 334 335 335 335 334 330 329 325 321 320 321 324 326 326 326 324 322 321 318 335 336 341
340 338 335 334 332 330 331 330 328 329 329 329 328 329 329 327 325 323 322 321 318 316 313 313 314 315 315 311 310 311 309 314 319
341 337 335 333 332 331 328 327 327 327 327 328 327 324 322 320 321 319 316 315 312 309 307 305 304 306 307 305 301 298 297 298 289
341 336 333 332 330 328 326 325 324 323 322 321 322 321 321 320 318 315 313 311 308 304 303 297 298 297 297 299 298 294 291 289 289
341 338 335 332 331 328 326 325 323 322 321 320 320 319 317 315 313 313 311 308 305 303 298 296 291 290 289 291 293 292 288 285 285
342 338 336 333 331 329 327 325 322 321 319 318 317 316 315 313 311 309 307 305 303 300 297 294 290 285 283 285 288 288 286 282 279
341 338 335 334 332 331 329 327 325 321 319 317 315 314 312 311 310 307 304 302 301 297 294 293 291 286 280 280 282 284 283 282 278
340 338 335 334 331 328 327 324 323 321 319 316 313 313 310 309 308 307 307 305 303 301 295 290 288 286 281 277 277 279 279 278 277
339 336 334 333 330 328 326 324 320 319 321 315 312 311 310 309 307 305 304 304 304 302 298 297 290 285 283 278 273 273 275 275 274
337 335 333 331 328 327 325 323 320 319 320 315 313 309 308 310 310 309 305 302 303 300 298 295 293 288 282 279 275 271 270 272 271
334 333 331 329 328 324 323 322 320 316 317 317 312 308 304 306 304 303 301 298 298 297 296 294 291 289 287 281 276 271 269 267 268
333 331 329 328 326 323 322 321 318 315 311 312 309 304 303 301 298 300 299 297 295 294 292 291 288 288 285 283 279 274 267 266 264
331 329 327 325 324 322 320 318 315 313 310 308 307 303 300 298 296 295 294 295 293 292 290 288 286 285 284 281 280 275 271 264 263